{"data":{"norad_id":57946,"epoch":"2026-05-25T03:30:11.579040Z","epoch_age_seconds":72722,"freshness":"FRESH","line1":"1 57946U 23148M   26145.14596735  .00000273  00000+0  21363-4 0  9997","line2":"2 57946  53.1603 106.3110 0001815  78.1028 282.0177 15.30190246149028","mean_motion":15.30190246,"eccentricity":0.0001815,"inclination_deg":53.1603,"raan_deg":106.311,"arg_perigee_deg":78.1028,"mean_anomaly_deg":282.0177,"bstar":2.1363e-5,"rev_number":14902,"period_min":94.10594556881,"perigee_km":474.00030457328,"apogee_km":476.48808194643,"semimajor_km":6853.3811932599,"source":"CELESTRAK","updated_at":"2026-05-25T13:38:18.462452Z"}}